Coronel Enrique Soto Cano, Honduras

7:19 AM CST on July 29, 2016 (GMT -0600)
Coronel Enrique Soto Cano Air Base

Weather History for MHSC - October, 2012

Change the Weather History Date:

Thursday, October 4, 2012

  Actual Average (MHTG) Record (MHTG)
Temperature  
Mean Temperature 76 °F -  
Max Temperature 84 °F 80 °F 86 °F (1996)
Min Temperature 68 °F 63 °F 57 °F (2004)
Cooling Degree Days 12    
Growing Degree Days 26 (Base 50)    
Moisture  
Dew Point 69 °F    
Average Humidity 82    
Maximum Humidity 99    
Minimum Humidity 53    
Precipitation  
Precipitation 0.01 in - - ()
Sea Level Pressure  
Sea Level Pressure 29.95 in    
Wind  
Wind Speed 8 mph ()    
Max Wind Speed 16 mph    
Max Gust Speed 21 mph    
Visibility 6.2 miles    
Events Rain    
Averages and records for this station are not official NWS values.
T = Trace of Precipitation, MM = Missing Value Source: Averaged Metar Reports

Daily Weather History Graph

Daily Weather History Graph

Search for Another Location

Airport or City:

Trip Planner

Search our weather history database for the weather conditions in past years. The results will help you decide how hot, cold, wet, or windy it might be!

Date:

Astronomy

Oct. 04, 2012 Rise Set
Actual Time 5:40 AM CST 5:37 PM CST
Civil Twilight 5:18 AM CST 5:58 PM CST
Nautical Twilight 4:54 AM CST 6:23 PM CST
Astronomical Twilight 4:29 AM CST 6:48 PM CST
Moon 8:55 PM CST (10/4) 9:15 AM CST (10/4)
Length of Visible Light 12h 39m
Length of Day
11h 57m
Waning Gibbous, 81% of the Moon is Illuminated
Oct 4
Waning Gibbous
Oct 8
Last Quarter
Oct 15
New
Oct 21
First Quarter
Oct 29
Full

Hourly Weather History & Observations

Time (CST) Temp. Heat Index Dew Point Humidity Pressure Visibility Wind Dir Wind Speed Gust Speed Precip Events Conditions
12:55 AM 68.9 °F - 68.7 °F 99% 29.96 in 6.2 mi NNE 3.5 mph - N/A   Mostly Cloudy
1:55 AM 68.7 °F - 68.2 °F 98% 29.95 in 6.2 mi North 8.1 mph - N/A   Clear
2:55 AM 68.7 °F - 68.2 °F 98% 29.96 in 6.2 mi North 9.2 mph - N/A   Partly Cloudy
3:55 AM 68.7 °F - 68.0 °F 98% 29.97 in 6.2 mi North 6.9 mph - N/A   Partly Cloudy
4:55 AM 68.5 °F - 68.0 °F 98% 29.98 in 6.2 mi NNE 5.8 mph - N/A   Partly Cloudy
5:55 AM 68.0 °F - 67.8 °F 99% 30.00 in 6.2 mi NNW 10.4 mph - N/A   Scattered Clouds
6:00 AM 70 °F - - %  in 6 mi NNW 6.9 mph - -   Haze
6:55 AM 70.0 °F - 69.6 °F 99% 29.99 in 6.2 mi NNW 10.4 mph - N/A   Partly Cloudy
7:13 AM 71.6 °F - 69.8 °F 94% 30.00 in 6.2 mi NNW 8.1 mph - N/A   Mostly Cloudy
7:18 AM 71.6 °F - 69.8 °F 94% 30.00 in 6.2 mi North 8.1 mph - N/A   Scattered Clouds
7:55 AM 74.1 °F - 69.6 °F 86% 29.99 in 6.2 mi North 15.0 mph - N/A   Clear
8:55 AM 77.0 °F - 69.1 °F 76% 30.01 in 6.2 mi North 15.0 mph - N/A   Clear
9:00 AM 77 °F - - %  in 6 mi North 6.9 mph - -   Haze
9:55 AM 80.1 °F 83.2 °F 70.0 °F 71% 29.99 in 6.2 mi North 12.7 mph 20.7 mph N/A   Clear
10:55 AM 81.9 °F 85.4 °F 69.6 °F 66% 29.97 in 6.2 mi NW 13.8 mph - N/A   Clear
11:55 AM 84.0 °F 87.8 °F 69.4 °F 61% 29.94 in 6.2 mi North 11.5 mph 19.6 mph N/A   Scattered Clouds
12:00 PM 82 °F - - %  in 6 mi North 6.9 mph - -   Haze
12:55 PM 84.9 °F 88.5 °F 68.5 °F 58% 29.89 in 6.2 mi NNW 10.4 mph - N/A   Mostly Cloudy
1:55 PM 86.5 °F 89.6 °F 67.6 °F 53% 29.86 in 6.2 mi NW 11.5 mph - N/A   Scattered Clouds
2:55 PM 86.5 °F 90.7 °F 69.3 °F 56% 29.85 in 6.2 mi NNW 11.5 mph - N/A   Scattered Clouds
3:00 PM 83 °F - - %  in 6 mi NNW 6.9 mph - -   Haze
3:55 PM 86.2 °F 90.7 °F 69.6 °F 58% 29.85 in 6.2 mi North 12.7 mph - N/A   Clear
4:55 PM 82.9 °F 86.7 °F 69.4 °F 64% 29.86 in 6.2 mi North 16.1 mph - N/A   Scattered Clouds
5:55 PM 79.5 °F - 69.6 °F 72% 29.88 in 6.2 mi North 13.8 mph - N/A   Mostly Cloudy
6:00 PM 77 °F - - %  in 6 mi North 6.9 mph - -   Haze
6:20 PM 80.6 °F 83.2 °F 68.0 °F 65% 29.91 in 6.2 mi Variable 5.8 mph - N/A Rain Light Rain
6:33 PM 75.2 °F - 69.8 °F 83% 29.93 in 6.2 mi West 10.4 mph - N/A   Overcast
6:55 PM 73.8 °F - 67.8 °F 82% 29.94 in 6.2 mi SW 8.1 mph - 0.01 in   Overcast
7:55 PM 70.9 °F - 67.5 °F 89% 29.97 in 6.2 mi NNW 11.5 mph - N/A   Overcast
8:55 PM 71.1 °F - 67.5 °F 88% 29.98 in 6.2 mi NNE 9.2 mph - N/A   Mostly Cloudy
9:55 PM 71.4 °F - 67.1 °F 86% 29.97 in 6.2 mi NNE 10.4 mph - N/A   Overcast
10:55 PM 69.6 °F - 68.2 °F 95% 29.99 in 6.2 mi West 4.6 mph - N/A   Mostly Cloudy
11:55 PM 68.7 °F - 67.8 °F 97% 29.96 in 6.2 mi NNW 3.5 mph - N/A   Mostly Cloudy